Location: Sungai Buloh
(3.1000°N, 113.0000°E)
Time: 17:24:41
(UTC+00:00)

TIMED - Pass Details

Date: 12 January 2026
Orbit: 581 x 584 km, 74.1° (Epoch: 11 February)

Event Time Altitude Azimuth Distance (km) Brightness Sun altitude
Rises 21:31:20 0° 195° (SSW) 2,794 8.0 -16.3°
Reaches altitude 10° 21:33:33 10° 197° (SSW) 1,893 7.1 -15.8°
Maximum altitude 21:37:45 74° 281° (WNW) 604 4.3 -14.8°
Drops below altitude 10° 21:41:57 10° 8° (N) 1,886 6.9 -13.8°
Sets 21:44:10 0° 10° (N) 2,783 7.8 -13.3°
